Regional Weather Roundup
Issued by NWS

Home | Current Version | Previous Version | Graphics & Text | Print | Product List | Glossary On
Versions: 1 2 3 4 5 6 7 8 9 10 11 12 13 14 15 16 17 18 19 20 21 22 23 24 25 26 27 28 29 30 31 32 33 34 35 36 37 38 39 40 41 42 43 44 45 46 47 48 49 50
000
ASUS43 KLOT 280312
RWRIL

ILLINOIS REGIONAL WEATHER ROUNDUP
NATIONAL WEATHER SERVICE CHICAGO/ROMEOVILLE IL
1000 PM CDT MON JUL 27 2015

NOTE: "FAIR" INDICATES FEW OR NO CLOUDS BELOW 12,000 FEET WITH NO
SIGNIFICANT WEATHER AND/OR OBSTRUCTIONS TO VISIBILITY.

* THESE STATIONS ARE NOT UNDER NWS QUALITY CONTROL. THEY ALSO MAY NOT
  REPORT WEATHER SUCH AS PRECIPITATION OR FOG.

ILZ001-002-007-009-015-016-024-280400-
NORTHWEST ILLINOIS

CITY           SKY/WX    TMP DP  RH WIND       PRES   REMARKS
MOLINE         CLOUDY    77  73  87 E5        29.96R
STERLING*      CLOUDY    73  72  94 CALM      29.98R
SAVANNA*       CLOUDY    76  71  83 SE3       29.98R
$$

ILZ003-004-008-010-011-017-018-280400-
NORTH CENTRAL ILLINOIS

CITY           SKY/WX    TMP DP  RH WIND       PRES   REMARKS
ROCKFORD       MOCLDY    75  64  68 SE8       30.02R
FREEPORT*      MOCLDY    71  64  80 SE3       30.02R
ROCHELLE*      MOCLDY    72  68  87 E7        30.01R
DE KALB*       MOCLDY    69  63  81 E6        30.03R
PERU*          CLOUDY    80  65  60 SE9       29.99S HX  82
$$

ILZ005-006-012>014-019>023-280400-
NORTHEAST ILLINOIS

CITY           SKY/WX    TMP DP  RH WIND       PRES   REMARKS
CHICAGO-OHARE  MOCLDY    76  65  68 E7        30.01R
CHICAGO-MIDWAY MOCLDY    79  65  62 E8        30.01R HX  81
AURORA         MOCLDY    74  63  68 E3        30.01R
LANSING*       MOCLDY    74  64  69 NE3       30.01R
JOLIET*        MOCLDY    76  66  70 E5        30.02R
WAUKEGAN       MOCLDY    71  66  84 NE8       30.02R
DUPAGE AIRPORT MOCLDY    75  63  66 E5        30.02R
KANKAKEE*      CLOUDY    74  69  84 NE3       30.02R
WHEELING       MOCLDY    74  66  76 E6        30.02S
MORRIS*        MOCLDY    74  65  73 E6        29.99S
ROMEOVILLE*    MOCLDY    74  62  65 E7        30.02R
NORTHERLY ISL    N/A     74  68  81 MISG        N/A
$$

LMZ740>746-280400-
SOUTHERN LAKE MICHIGAN

STATION/POSITION SKY/WX   TEMP    WIND        PRES    VSBY  WAVE
                          AIR SEA DIR/SP/G                  HT/PER
                          (F)     (DEG/KT/KT) (MB)    (MI)  (FT/S)
HARRISON CRIB              75      50/ 11/ 12   N/A
BURNHAM HARBOR             73      10/  3/  5   N/A
CALUMET HARBOR             75      40/  3/  5   N/A
BURNS HARBOR               74      80/  8/  9 1016.6R
MICHIGAN CITY              74      30/  8/  9   N/A
MICHIGAN CITY 6N           75 75   70/ 12/ 14   N/A           2/ 3
ST. JOSEPH                 74 74   80/ 10/ 12   N/A           1/ 2
$$

ILZ025>027-034>036-040-047-049-050-058-095>099-280400-
WEST-CENTRAL ILLINOIS

CITY           SKY/WX    TMP DP  RH WIND       PRES   REMARKS
QUINCY         CLOUDY    73  71  93 S5        29.95F
GALESBURG*     CLOUDY    76  72  88 E3        29.96S
MACOMB*        LGT RAIN  75  74  97 E6        29.97F
JACKSONVILLE*  LGT RAIN  75  73  92 CALM      29.96F
PITTSFIELD*    CLOUDY    73  71  93 CALM      29.96F
$$

ILZ028>032-037-038-041>044-048-051>054-059>061-280400-
CENTRAL ILLINOIS

CITY           SKY/WX    TMP DP  RH WIND       PRES   REMARKS
PONTIAC        CLOUDY    77  74  91 E5        30.00S
BLOOMINGTON    CLOUDY    78  74  87 E5        30.01S HX  80
DECATUR        CLOUDY    77  73  87 E5        29.98F
PEORIA         CLOUDY    81  72  74 E6        29.97F HX  85
LACON*         CLOUDY    78  73  85 E3        29.97S
LINCOLN*       CLOUDY    78  74  86 CALM      29.97F HX  81
SPRINGFIELD    CLOUDY    81  76  84 E5        29.97F HX  87
TAYLORVILLE    CLOUDY    79  73  83 NE7       29.97F HX  82
$$

ILZ033-039-045-046-055>057-062-063-280400-
EAST-CENTRAL ILLINOIS

CITY           SKY/WX    TMP DP  RH WIND       PRES   REMARKS
CHAMPAIGN      CLOUDY    74  72  93 CALM      30.00R
DANVILLE*      CLOUDY    75  73  95 CALM      29.98R
RANTOUL*       CLOUDY    81  75  83 NE3       30.00R HX  86
MATTOON        CLOUDY    75  71  87 CALM      29.98R
PARIS*         CLOUDY    76  74  96 CALM      30.00R FOG
$$

ILZ079-100>102-280400-
SOUTHWEST ILLINOIS

CITY           SKY/WX    TMP DP  RH WIND       PRES   REMARKS
ALTON          MOCLDY    77  70  78 NW18      29.98S
BELLEVILLE     CLOUDY    79  73  83 VRB5      29.98R HX  82
CAHOKIA*       CLOUDY    79  70  74 N3        29.99R HX  82
SPARTA*        CLOUDY    78  72  82 NW10      29.98R
$$

ILZ064>066-069>071-074>076-080>082-084>086-088>090-092>094-280400-
SOUTH-CENTRAL ILLINOIS

CITY           SKY/WX    TMP DP  RH WIND       PRES   REMARKS
CARBONDALE     CLOUDY    76  73  91 CALM      29.98R
CAIRO*         CLOUDY    77  75  92 E3        29.97R
EFFINGHAM*     CLOUDY    80  73  78 NE3       29.99S HX  84
MARION         CLOUDY    77  75  94 CALM      29.99R
MT. VERNON     CLOUDY    77  70  78 CALM      29.98R
CENTRALIA*     CLOUDY    75  71  86 CALM      29.99R
SALEM*         CLOUDY    78  73  87 SW3       29.98R
METROPOLIS*    LGT RAIN  78  77  97 CALM      29.98R HX  80
$$

ILZ067-068-072-073-078-083-087-091-280400-
SOUTHEAST ILLINOIS

CITY           SKY/WX    TMP DP  RH WIND       PRES   REMARKS
LAWRENCEVILLE  CLOUDY    79  73  82 N13G18    29.98R HX  82
FLORA*         CLOUDY    79  76  90 SE5       29.97R HX  83
FAIRFIELD*     CLOUDY    78  75  90 CALM      29.97R HX  80
HARRISBURG*    CLOUDY    76  75  97 SW3       29.99R
ROBINSON*      CLOUDY    74  72  92 NW3       30.00R
CARMI*         CLOUDY    76  70  82 CALM      29.97R
$$

ABBREVIATIONS USED IN REMARKS
   TC - TEMPERATURE IN CELSIUS
  WCI - WIND CHILL INDEX
   HX - HEAT INDEX
  VSB - VISIBILITY
$$




USA.gov is the U.S. government's official web portal to all federal, state and local government web resources and services.